Weather History for Reading, PA

Change the Weather History Date:

Sunday, March 2, 2014

  Actual Average Record
Temperature  
Mean Temperature 33 °F 36 °F  
Max Temperature 40 °F 46 °F 72 °F (1972)
Min Temperature 26 °F 27 °F 9 °F (1980)
Degree Days  
Heating Degree Days 32 29  
Month to date heating degree days 76 58  
Since 1 July heating degree days 4386 4100  
Cooling Degree Days 0 0  
Month to date cooling degree days 0 0  
Year to date cooling degree days 0 0  
Moisture  
Dew Point 27 °F    
Average Humidity 75    
Maximum Humidity 96    
Minimum Humidity 54    
Precipitation  
Precipitation 0.03 in 0.08 in 1.37 in (2007)
Month to date precipitation 0.03 0.16  
Year to date precipitation 6.71 5.69  
Sea Level Pressure  
Sea Level Pressure 30.06 in    
Wind  
Wind Speed 3 mph (North)    
Max Wind Speed 12 mph    
Max Gust Speed 15 mph    
Visibility 6 miles    
Events Fog , Snow    
T = Trace of Precipitation, MM = Missing Value Source: NWS Daily Summary

Daily Weather History Graph

Daily Weather History Graph

Search for Another Location

Airport:

Trip Planner

Search our weather history database for the weather conditions in past years. The results will help you decide how hot, cold, wet, or windy it might be!

Date:

Astronomy

Mar. 02, 2014 Rise Set
Actual Time 6:35 AM EST 5:56 PM EST
Civil Twilight 6:08 AM EST 6:23 PM EST
Nautical Twilight 5:37 AM EST 6:55 PM EST
Astronomical Twilight 5:05 AM EST 7:26 PM EST
Moon 7:05 AM EST (3/2) 7:50 PM EST (3/2)
Length of Visible Light 12h 15m
Length of Day
11h 20m
Waxing Crescent, 3% of the Moon is Illuminated
Mar 2
Waxing Crescent
Mar 8
First Quarter
Mar 16
Full
Mar 23
Last Quarter
Mar 30
New

Hourly Weather History & Observations

Time (EST) Temp. Windchill Dew Point Humidity Pressure Visibility Wind Dir Wind Speed Gust Speed Precip Events Conditions
12:54 AM 27.0 °F - 17.1 °F 66% 30.16 in 10.0 mi Calm Calm - N/A   Overcast
1:54 AM 27.0 °F 23.0 °F 19.9 °F 75% 30.15 in 10.0 mi NNW 3.5 mph - N/A   Overcast
2:54 AM 28.9 °F - 19.0 °F 67% 30.13 in 10.0 mi Calm Calm - N/A   Overcast
3:54 AM 28.0 °F 24.2 °F 21.0 °F 75% 30.09 in 10.0 mi SE 3.5 mph - N/A   Overcast
4:54 AM 28.9 °F - 21.9 °F 75% 30.09 in 10.0 mi Calm Calm - N/A   Overcast
5:54 AM 30.0 °F - 21.0 °F 69% 30.09 in 10.0 mi Calm Calm - N/A   Overcast
6:54 AM 30.0 °F - 23.0 °F 75% 30.08 in 10.0 mi Calm Calm - N/A   Overcast
7:54 AM 30.9 °F 27.5 °F 24.1 °F 76% 30.10 in 9.0 mi NW 3.5 mph - N/A   Overcast
8:54 AM 32.0 °F - 23.0 °F 69% 30.12 in 10.0 mi Calm Calm - N/A   Overcast
9:54 AM 34.0 °F - 24.1 °F 67% 30.10 in 9.0 mi Calm Calm - N/A   Overcast
10:54 AM 36.0 °F - 21.9 °F 57% 30.08 in 10.0 mi Calm Calm - N/A   Overcast
11:54 AM 37.9 °F - 23.0 °F 55% 30.06 in 10.0 mi Calm Calm - N/A   Overcast
12:54 PM 39.0 °F - 26.1 °F 60% 30.04 in 10.0 mi Calm Calm - N/A   Overcast
1:54 PM 39.0 °F 34.0 °F 27.0 °F 62% 30.05 in 7.0 mi WNW 6.9 mph - N/A   Overcast
2:54 PM 37.0 °F 31.6 °F 30.0 °F 76% 30.04 in 5.0 mi North 6.9 mph - 0.00 in Snow Light Snow
3:06 PM 36.0 °F 30.3 °F 30.9 °F 82% 30.02 in 2.0 mi North 6.9 mph - 0.00 in Snow Light Snow
3:28 PM 35.1 °F 28.6 °F 30.9 °F 85% 30.01 in 1.8 mi North 8.1 mph - 0.00 in Snow Light Snow
3:54 PM 34.0 °F 28.0 °F 32.0 °F 92% 30.04 in 1.8 mi North 6.9 mph - 0.01 in Snow Light Snow
4:00 PM 34.0 °F 29.8 °F 32.0 °F 92% 30.02 in 1.2 mi North 4.6 mph - 0.00 in Snow Light Snow
4:08 PM 34.0 °F 31.0 °F 32.0 °F 92% 30.02 in 1.0 mi North 3.5 mph - 0.00 in Snow Light Snow
4:25 PM 34.0 °F 29.8 °F 32.0 °F 92% 30.02 in 0.8 mi North 4.6 mph - 0.01 in Snow Light Snow
4:37 PM 34.0 °F 29.8 °F 30.9 °F 89% 30.02 in 0.5 mi North 4.6 mph - 0.01 in Fog , Snow Snow
4:46 PM 34.0 °F 29.8 °F 32.0 °F 92% 30.02 in 0.8 mi North 4.6 mph - 0.02 in Snow Light Snow
4:54 PM 34.0 °F 28.8 °F 30.9 °F 89% 30.05 in 1.0 mi North 5.8 mph - 0.02 in Snow Light Snow
5:02 PM 34.0 °F 28.0 °F 30.9 °F 89% 30.03 in 1.2 mi North 6.9 mph - 0.00 in Snow Light Snow
5:15 PM 33.1 °F 26.1 °F 30.0 °F 89% 30.02 in 2.0 mi North 8.1 mph - 0.00 in Snow Light Snow
5:54 PM 33.1 °F 30.0 °F 30.9 °F 92% 30.05 in 2.0 mi North 3.5 mph - 0.00 in   Overcast
6:54 PM 33.1 °F - 30.0 °F 89% 30.05 in 5.0 mi Calm Calm - N/A   Overcast
7:54 PM 33.1 °F - 30.9 °F 92% 30.04 in 4.0 mi Calm Calm - N/A   Overcast
8:33 PM 33.1 °F - 30.9 °F 92% 30.03 in 2.5 mi Calm Calm - N/A   Overcast
8:54 PM 33.1 °F - 30.9 °F 92% 30.05 in 2.5 mi Calm Calm - N/A   Overcast
9:01 PM 33.1 °F - 30.9 °F 92% 30.02 in 3.0 mi Calm Calm - N/A   Overcast
9:54 PM 32.0 °F 24.8 °F 21.0 °F 64% 30.06 in 10.0 mi NE 8.1 mph - N/A   Overcast
10:54 PM 30.9 °F 24.3 °F 19.0 °F 61% 30.05 in 10.0 mi NNE 6.9 mph - N/A   Overcast
11:54 PM 30.0 °F 21.1 °F 18.0 °F 61% 30.04 in 10.0 mi NNE 10.4 mph - N/A   Overcast